Weather History for PANN - August, 2013

Change the Weather History Date:

Saturday, August 17, 2013

  Actual Average Record
Temperature  
Mean Temperature 62 °F -  
Max Temperature 70 °F 66 °F 83 °F (1977)
Min Temperature 55 °F 45 °F 44 °F (2011)
Degree Days  
Heating Degree Days 3    
Growing Degree Days 12 (Base 50)    
Moisture  
Dew Point 51 °F    
Average Humidity 80    
Maximum Humidity 96    
Minimum Humidity 53    
Precipitation  
Precipitation 0.28 in - - ()
Sea Level Pressure  
Sea Level Pressure 29.61 in    
Wind  
Wind Speed 3 mph (NW)    
Max Wind Speed 20 mph    
Max Gust Speed -    
Visibility 10 miles    
Events Rain    
Averages and records for this station are not official NWS values.
T = Trace of Precipitation, MM = Missing Value Source: NWS Daily Summary

Daily Weather History Graph

Daily Weather History Graph

Search for Another Location

Airport or City:

Trip Planner

Search our weather history database for the weather conditions in past years. The results will help you decide how hot, cold, wet, or windy it might be!

Date:

Astronomy

Aug. 17, 2013 Rise Set
Actual Time 5:52 AM AKDT 10:05 PM AKDT
Civil Twilight 4:47 AM AKDT 11:09 PM AKDT
Nautical Twilight 2:26 AM AKDT 1:15 AM AKDT
Astronomical Twilight Sun does not rise Sun does not rise
Moon 8:08 PM AKDT (8/17) 1:15 AM AKDT (8/17)
Length of Visible Light 18h 21m
Length of Day
16h 13m
Waxing Gibbous, 85% of the Moon is Illuminated
Aug 17
Waxing Gibbous
Aug 20
Full
Aug 28
Last Quarter
Sep 5
New
Sep 12
First Quarter

Hourly Weather History & Observations

Time (AKDT) Temp. Dew Point Humidity Pressure Visibility Wind Dir Wind Speed Gust Speed Precip Events Conditions
12:53 AM 52.0 °F 48.9 °F 89% 29.62 in 10.0 mi Calm Calm - N/A   Clear
1:53 AM 50.0 °F 48.0 °F 93% 29.62 in 10.0 mi Calm Calm - N/A   Clear
2:53 AM 48.9 °F 46.9 °F 93% 29.62 in 10.0 mi Calm Calm - N/A   Clear
3:53 AM 46.9 °F 44.1 °F 90% 29.61 in 10.0 mi Calm Calm - N/A   Clear
4:53 AM 48.0 °F 45.0 °F 89% 29.61 in 10.0 mi Calm Calm - N/A   Mostly Cloudy
5:53 AM 48.9 °F 46.9 °F 93% 29.61 in 10.0 mi Calm Calm - N/A   Mostly Cloudy
6:53 AM 51.1 °F 50.0 °F 96% 29.62 in 10.0 mi Calm Calm - N/A   Overcast
7:53 AM 52.0 °F 50.0 °F 93% 29.60 in 10.0 mi Calm Calm - 0.00 in   Overcast
8:53 AM 52.0 °F 50.0 °F 93% 29.61 in 10.0 mi Calm Calm - N/A   Partly Cloudy
9:53 AM 55.9 °F 53.1 °F 90% 29.61 in 10.0 mi Calm Calm - N/A   Mostly Cloudy
10:53 AM 57.0 °F 52.0 °F 83% 29.60 in 10.0 mi WNW 4.6 mph - N/A   Overcast
11:53 AM 57.9 °F 52.0 °F 81% 29.60 in 10.0 mi NW 3.5 mph - N/A   Overcast
12:53 PM 62.1 °F 54.0 °F 75% 29.59 in 10.0 mi Calm Calm - N/A   Mostly Cloudy
1:53 PM 64.0 °F 54.0 °F 70% 29.57 in 10.0 mi WNW 6.9 mph - N/A   Overcast
2:53 PM 66.0 °F 53.1 °F 63% 29.56 in 10.0 mi NW 8.1 mph - N/A   Scattered Clouds
3:53 PM 68.0 °F 53.1 °F 59% 29.55 in 10.0 mi NW 9.2 mph - N/A   Scattered Clouds
4:53 PM 69.1 °F 51.1 °F 53% 29.54 in 10.0 mi NW 4.6 mph - N/A   Partly Cloudy
5:53 PM 66.9 °F 51.1 °F 57% 29.53 in 10.0 mi Variable 6.9 mph - N/A   Overcast
6:53 PM 66.0 °F 51.1 °F 59% 29.53 in 10.0 mi Variable 5.8 mph - N/A   Overcast
7:53 PM 64.0 °F 51.1 °F 63% 29.53 in 10.0 mi NW 4.6 mph - N/A   Mostly Cloudy
8:53 PM 63.0 °F 52.0 °F 67% 29.53 in 10.0 mi NNW 4.6 mph - N/A   Overcast
9:53 PM 61.0 °F 52.0 °F 72% 29.52 in 10.0 mi NW 5.8 mph - N/A   Overcast
10:53 PM 59.0 °F 51.1 °F 75% 29.52 in 10.0 mi NW 3.5 mph - N/A   Overcast
11:53 PM 59.0 °F 51.1 °F 75% 29.52 in 10.0 mi Calm Calm - N/A   Overcast